This is the latest recevied weather packets stored in our database for station/object HASTNG-WX. If no packets are shown the sender has not sent any weather packets the latest 10 day(s).
| Time | Temp. | Humidity | Pressure | Rain* | Wind** | Luminosity | Snow |
|---|---|---|---|---|---|---|---|
| 1777932065 | 22.78° C | 36% | 971.1 hPa | 0 mm | - | - | - |
| 1777931129 | 22.78° C | 35% | 972.2 hPa | 0 mm | - | - | - |
| 1777930252 | 22.78° C | 35% | 972.2 hPa | 0 mm | - | - | - |
| 1777929329 | 22.78° C | 34% | 971.2 hPa | 0 mm | - | - | - |
| 1777928461 | 22.78° C | 34% | 971.2 hPa | 0 mm | - | - | - |
| 1777927535 | 23.33° C | 36% | 971.9 hPa | 0 mm | - | - | - |
| 1777926645 | 23.33° C | 36% | 971.9 hPa | 0 mm | - | - | - |
| 1777925736 | 23.33° C | 36% | 971.9 hPa | 0 mm | - | - | - |
| 1777924859 | 23.33° C | 38% | 971.2 hPa | 0 mm | - | - | - |
| 1777923936 | 23.33° C | 38% | 972.3 hPa | 0 mm | - | - | - |
| 1777923055 | 23.33° C | 38% | 972.3 hPa | 0 mm | - | - | - |
| 1777922136 | 22.78° C | 38% | 972.3 hPa | 0 mm | - | - | - |
| 1777921262 | 22.78° C | 38% | 972.3 hPa | 0 mm | - | - | - |
| 1777920332 | 22.78° C | 30% | 973.2 hPa | 0 mm | - | - | - |
| 1777919456 | 22.78° C | 32% | 972.9 hPa | 0 mm | - | - | - |
| 1777918536 | 22.78° C | 32% | 972.9 hPa | 0 mm | - | - | - |
| 1777917667 | 22.78° C | 32% | 972.9 hPa | 0 mm | - | - | - |
| 1777916735 | 22.22° C | 31% | 973.8 hPa | 0 mm | - | - | - |
| 1777915851 | 22.22° C | 35% | 973.6 hPa | 0 mm | - | - | - |
| 1777914935 | 21.67° C | 35% | 973.6 hPa | 0 mm | - | - | - |
| 1777914059 | 21.67° C | 31% | 973.4 hPa | 0 mm | - | - | - |
| 1777913135 | 21.11° C | 36% | 974 hPa | 0 mm | - | - | - |
| 1777912249 | 21.11° C | 36% | 974 hPa | 0 mm | - | - | - |
| 1777911334 | 20.56° C | 36% | 974 hPa | 0 mm | - | - | - |
| 1777910464 | 20.56° C | 36% | 974 hPa | 0 mm | - | - | - |
* Rain latest hour (hover to see other rain measurements)
** Current wind speed in m/s (hover to see current wind gust speed)